Location: Middelsbur
(53.6609°N, 7.5020°E)
Time: 00:13:39
(UTC+00:00)

ATLAS 2AS CENTAUR R/B - Pass Details

Date: 06 July 2020
Orbit: 930 x 1282 km, 63.7° (Epoch: 19 July)

Event Time Altitude Azimuth Distance (km) Brightness Sun altitude
Rises 23:37:00 0° 312° (NW) 4,161 6.4 -13.8°
Reaches altitude 10° 23:40:31 10° 298° (WNW) 3,140 5.5 -13.8°
Maximum altitude 23:45:56 22° 252° (WSW) 2,264 4.2 -13.7°
Enters shadow 23:49:56 14° 212° (SSW) 2,683 4.3 -13.7°
